Lid_Strength_Index
-0 0 0 0 0 -0 -0 -0 -1 -0 -1 -1 -1 -1 -1 -1 -1 -1 -1 -1 -0 -0 -0 -1 -1 -1 1 5 6 2 -1 1 1 2 3 4 8 8 11 10 9 11 9 8 7 7 7
1 1 1 0 0 0 0 -1 -0 -1 -0 -1 -1 -1 -1 -1 -1 -2 -1 -1 -1 -0 -1 -0 -1 0 5 10 4 4 4 3 3 3 4 4 6 6 9 9 10 8 8 8 7 8 7
1 1 1 1 1 1 1 0 -0 -0 -0 -1 -1 -1 -1 -1 -1 -1 -1 -1 -1 -1 -1 -0 -0 2 6 7 4 4 4 5 4 4 4 4 4 7 7 10 7 8 11 9 9 8 9
1 1 1 1 2 2 1 1 1 1 -0 0 -0 -1 -1 -1 -1 -1 -1 -1 -1 -1 -1 -0 -0 3 8 3 3 4 4 5 5 4 5 3 3 5 7 7 8 10 11 15 10 8 8
1 1 1 2 2 2 2 2 2 1 1 -0 0 -0 -1 -1 -1 -1 -1 -1 -1 -0 -0 -0 4 6 9 2 4 4 4 6 6 6 5 4 6 9 9 11 13 12 16 15 12 9 9
1 2 2 2 2 2 3 3 3 2 2 1 0 1 0 -1 -1 -1 -1 -1 -0 0 1 2 3 8 6 7 5 4 4 5 7 7 7 8 9 11 11 13 18 16 16 14 13 10 10
2 2 2 2 2 3 3 3 3 2 2 2 1 -0 1 -0 -1 -1 0 3 6 6 4 8 8 8 7 5 4 5 5 6 7 9 12 10 12 14 12 12 12 13 14 14 12 10 11
3 2 2 2 2 2 3 3 2 2 2 2 1 1 -0 1 -1 -1 2 6 7 7 10 6 6 6 5 5 8 6 5 8 9 12 12 12 14 12 11 11 11 12 14 14 12 10 11
2 2 2 2 2 2 2 1 2 1 1 1 1 1 0 1 -1 1 3 6 4 5 11 9 7 7 7 6 8 8 6 8 11 13 12 14 13 11 11 12 13 14 15 15 15 12 12
1 1 2 2 1 1 1 0 -0 -1 -0 0 1 1 0 1 2 3 5 3 4 5 18 14 10 8 7 6 9 5 5 8 11 12 12 13 11 12 13 13 13 15 12 12 13 15 19
1 1 2 1 0 -0 0 -0 -1 -1 -1 -0 0 0 -0 1 2 5 4 3 4 8 25 12 10 5 6 9 8 8 5 7 12 12 12 14 13 13 14 13 12 14 11 12 13 15 17
1 1 1 -0 -0 -0 -0 -1 -1 -2 -1 -0 -1 -1 0 2 2 3 3 3 5 18 24 13 10 9 10 9 8 8 7 6 7 10 11 13 11 12 13 12 12 11 13 14 14 14 19
1 1 -0 -1 -1 -1 -1 -2 -1 -1 -1 -1 -1 -1 0 2 5 1 2 5 14 20 12 13 12 10 10 11 10 9 10 11 13 15 15 12 12 9 9 12 11 11 13 19 20 20 21
1 1 -1 -1 -1 -1 -1 -1 -1 -1 -1 -1 -1 -1 0 1 2 1 4 11 19 15 14 10 11 11 12 11 11 10 11 13 11 12 15 17 19 12 9 11 13 12 13 18 22 22 20
1 1 -1 -1 -1 -1 -1 -1 -1 -1 -0 -1 -1 3 3 3 1 2 8 15 16 14 11 12 11 13 13 12 11 12 12 12 11 11 15 16 17 10 9 9 10 13 16 11 15 15 18
1 1 -1 -1 -1 -2 -1 -1 -1 -1 -0 -1 3 5 5 2 1 4 10 14 13 10 9 10 14 13 15 13 14 13 13 13 12 10 10 13 17 12 10 9 9 11 10 17 16 21 22
2 1 -0 -0 -1 -1 -1 -1 -1 -1 -0 -1 4 8 4 2 3 8 13 13 12 8 8 11 12 13 12 13 13 13 15 13 11 11 10 12 14 15 11 13 14 13 14 14 14 16 21
2 1 -0 -0 -0 -1 -0 -0 -1 -1 -0 1 5 10 3 2 9 9 13 12 9 10 8 9 10 10 12 13 14 16 16 13 11 11 13 10 13 16 14 10 9 10 12 13 17 19 16
2 1 0 0 0 -0 -0 -0 -1 -0 -0 3 7 7 2 3 12 12 11 10 9 10 10 10 11 9 9 11 14 14 13 11 10 11 12 11 14 18 17 13 11 13 12 11 12 13 17
2 1 0 0 0 0 0 0 0 0 0 3 7 11 7 6 7 10 11 11 11 8 9 9 9 9 10 12 12 14 14 11 11 10 8 9 13 15 18 16 13 15 13 12 13 17 16
2 1 1 1 1 1 1 2 1 1 1 2 6 10 9 13 10 10 9 10 11 12 9 8 10 10 11 14 13 13 13 12 10 9 9 10 15 14 13 12 13 14 14 13 14 13 16
3 2 1 1 1 1 2 2 2 1 1 5 8 9 8 10 9 11 11 11 11 10 10 11 11 10 10 12 12 14 13 12 13 11 11 10 15 14 15 13 13 15 13 13 13 12 13
3 2 1 1 2 2 3 2 2 2 2 6 6 5 7 8 9 10 11 10 10 9 8 8 9 10 11 10 8 8 9 10 10 11 12 13 15 15 17 14 14 17 14 13 12 12 12
3 3 2 2 2 3 3 3 3 3 2 5 6 6 8 11 10 10 9 9 10 9 10 9 8 10 8 6 6 8 10 10 11 10 10 14 15 15 17 15 21 14 11 12 13 11 11
3 3 3 2 2 4 3 4 3 3 3 5 5 6 7 11 9 9 9 9 8 8 9 9 7 7 6 7 11 13 13 13 12 11 11 11 14 16 18 18 15 14 12 13 14 14 11
3 3 3 4 4 4 4 4 4 3 3 4 5 4 6 9 10 7 9 8 10 10 10 9 7 6 6 9 12 15 18 15 16 15 13 11 11 14 16 19 20 16 11 9 10 16 10
3 3 3 3 4 4 5 4 4 4 4 4 5 4 5 8 7 6 9 9 7 9 10 10 10 9 7 11 14 15 16 13 17 18 15 14 14 16 16 17 16 13 13 10 16 14 12
3 3 3 3 4 4 4 4 5 4 3 4 6 4 5 7 6 5 5 8 8 8 10 8 9 9 10 13 14 14 15 14 16 15 15 15 16 16 17 19 19 12 12 15 13 12 13
3 3 3 3 3 4 4 4 5 4 4 3 7 4 4 6 7 5 5 5 5 5 7 7 9 9 9 11 12 11 14 14 14 17 14 16 13 14 14 15 12 12 12 11 11 12 13